Weather in Ustye-Zelenoe

Ukraine / Ternopil District     49°01′36″N   24°57′50″E
temp.,
°C
wind,
m/s
gust,
m/s
humid.,
%
clouds,
%
prec.,
mm/h
press.,
hPa
HPBL,
m
28 november, sun
sun2823:00+4sse22852 0.0 100220
02:00+4se228679 0.0 100118
05:00+5ese2282100 0.0 100033
08:00+4se1183100 0.0 99911
11:00+6nw1176100 0.0 999151
14:00+6se1175100 0.0 99990
17:00+6ese11776 0.0 99817
20:00+5ese2284100 0.0 99721
29 november, mon
mon2923:00+5ese3682100 0.0 995108
02:00+5se2485100 0.0 99370
05:00+5sse1185100 0.0 99110
08:00+5nw3884100 0.0 991245
11:00+2nw61296100 1.7 995476
14:00+2nw71383100 2.9 995726
17:00+2nw81476100 0.0 996811
20:00+1wnw8136989 0.0 999936
30 november, tue
tue3023:000wnw8157235 0.0 999789
02:000w615685 0.0 1001721
05:00+1w8156435 0.0 1002821
08:00+1wnw10166733 0.0 10041052
11:00+2wnw9156684 0.0 10061263
14:00+1wnw9136690 0.0 10061328
17:000wnw512665 0.0 1006448
20:00−2wsw2271100 0.0 100535
1 december, wed
wed123:000wsw3856100 0.1 1003241
02:00+3w8165397 0.3 10021084
05:00+2w81759100 0.0 1002820
08:00+2w8146897 0.0 1004758
11:00+4w61362100 0.0 10051301
14:00+7w51157100 0.1 10041048
17:00+5wsw1165100 0.0 100328
20:00+4ssw227078 0.0 100328
2 december, thu
thu223:00+4wsw4106454 0.0 1003214
02:00+5wsw41068100 0.0 1002227
05:00+3wnw237383 0.0 100340
08:00+3ssw117396 0.0 100315
11:00+7wsw136097 0.0 1004229
14:00+8sw4662100 0.0 1003562
17:00+5sse3580100 0.0 100492
20:00+6s497868 0.0 1003243